CW6596 Weather Reports


time (UTC)temp
F
wind
direction
speed
knots
gust
knots
rain 1hr
in
rain 24hr
in
rain mn
in
humidity
%
barometer
mb
20260507133133 54 241 3.5 11.3 0.00 0.93 0.20 83 1005.1
20260507131557 53 314 5.2 14.8 0.00 0.93 0.20 87 1005.4
20260507130106 52 305 4.3 8.7 0.00 0.93 0.20 86 1005.0
20260507124554 51 318 3.5 8.7 0.00 0.93 0.20 85 1005.2
20260507123052 51 314 4.3 10.4 0.00 0.93 0.20 90 1004.8
20260507121603 49 312 6.1 8.7 0.00 0.93 0.20 91 1004.6
20260507120056 49 296 4.3 7.8 0.00 0.93 0.20 92 1004.8
20260507114627 48 274 2.6 6.1 0.00 0.93 0.20 92 1005.8
20260507113045 47 278 2.6 5.2 0.00 0.93 0.20 93 1005.5
20260507111547 47 273 0.9 5.2 0.00 0.93 0.20 92 1005.6
20260507110043 46 290 2.6 5.2 0.00 0.93 0.20 93 1005.3
20260507104542 46 282 3.5 7.8 0.00 0.93 0.20 93 1005.6
20260507103040 46 318 3.5 9.6 0.00 0.93 0.20 93 1004.7
20260507101542 46 309 6.1 9.6 0.00 0.93 0.20 94 1004.6
20260507100036 46 326 3.5 9.6 0.00 0.93 0.20 94 1004.2
20260507094534 46 316 6.1 12.2 0.00 0.93 0.20 94 1004.4
20260507093033 47 306 6.1 10.4 0.00 0.93 0.20 94 1004.5
20260507091540 47 311 5.2 11.3 0.00 0.93 0.20 94 1004.4
20260507090036 47 306 5.2 14.8 0.00 0.93 0.20 94 1004.6
20260507084528 48 337 7.0 12.2 0.00 0.93 0.20 95 1004.3
20260507083031 48 299 6.1 10.4 0.00 0.93 0.20 95 1003.8
20260507081521 48 316 6.1 10.4 0.00 0.93 0.20 95 1003.8
20260507080023 48 307 5.2 11.3 0.00 0.93 0.20 95 1003.9
20260507074519 48 298 5.2 8.7 0.01 0.93 0.20 95 1003.7
20260507073017 48 298 7.0 11.3 0.01 0.93 0.20 95 1003.5
20260507071515 49 311 5.2 13.9 0.01 0.93 0.20 95 1003.5
20260507070014 49 324 7.0 12.2 0.02 0.93 0.20 95 1003.0
20260507064511 50 1 7.0 11.3 0.09 0.92 0.19 95 1003.2
20260507063010 50 337 6.1 9.6 0.17 0.92 0.19 95 1003.3
20260507061509 50 263 4.3 10.4 0.19 0.92 0.19 95 1003.4
20260507060008 50 245 6.1 8.7 0.18 0.91 0.18 95 1002.9
20260507054516 50 252 7.0 17.4 0.08 0.81 0.08 94 1003.4
20260507053005 50 194 6.1 13.9 0.02 0.75 0.02 94 1003.1
20260507051504 50 229 5.2 10.4 0.00 0.73 0.00 95 1003.4
20260507050100 50 297 3.5 10.4 0.00 0.73 0.00 94 1003.6
20260507044559 50 185 5.2 11.3 0.00 0.73 0.73 94 1003.1
20260507043058 50 208 6.1 12.2 0.00 0.73 0.73 94 1003.3
20260507041559 50 186 6.1 15.6 0.00 0.73 0.73 94 1003.4
20260507040057 50 212 7.0 16.5 0.00 0.73 0.73 94 1003.6
20260507034556 50 199 7.8 20.9 0.00 0.73 0.73 94 1003.7
20260507033054 50 207 7.8 20.0 0.03 0.73 0.73 94 1003.7
20260507031549 50 129 7.0 20.9 0.10 0.73 0.73 94 1003.8
20260507030047 51 185 14.8 26.9 0.13 0.73 0.73 94 1004.0
20260507024548 52 197 9.6 18.2 0.16 0.72 0.72 94 1004.2
20260507023049 51 176 7.0 16.5 0.21 0.70 0.70 94 1004.4
20260507021545 51 189 9.6 19.1 0.20 0.63 0.63 93 1004.6
20260507020058 51 176 11.3 21.7 0.20 0.59 0.59 93 1004.7
20260507014537 52 152 8.7 17.4 0.19 0.55 0.55 94 1005.0
20260507013047 52 152 10.4 20.0 0.15 0.49 0.49 93 1005.4
20260507011533 52 174 10.4 19.1 0.14 0.42 0.42 93 1005.8
20260507010034 52 160 6.1 15.6 0.19 0.39 0.39 93 1005.9
20260507004527 52 180 7.0 15.6 0.19 0.36 0.36 93 1006.2
20260507003040 52 158 7.0 15.6 0.23 0.34 0.34 93 1006.4
20260507001524 52 179 6.1 18.2 0.19 0.27 0.27 92 1006.5
20260507000023 53 155 7.0 16.5 0.12 0.19 0.19 92 1006.7
20260506234522 53 208 8.7 21.7 0.10 0.16 0.16 92 1006.9
20260506233022 53 191 10.4 20.9 0.06 0.11 0.11 92 1006.8
20260506231520 52 201 7.8 13.9 0.04 0.08 0.08 92 1006.9
20260506230020 52 196 7.0 15.6 0.04 0.07 0.07 92 1007.0
20260506224518 52 186 7.0 20.0 0.05 0.06 0.06 92 1006.9
20260506223016 52 179 6.1 14.8 0.04 0.05 0.05 92 1007.3
20260506221516 52 164 9.6 25.2 0.04 0.04 0.04 92 1007.4
20260506220013 51 169 7.0 20.0 0.02 0.02 0.02 91 1007.9
20260506214514 52 189 7.8 22.6 0.01 0.01 0.01 91 1008.2
20260506213009 51 179 8.7 19.1 0.01 0.01 0.01 91 1007.9
20260506211509 52 200 7.8 19.1 0.00 0.00 0.00 90 1008.2
20260506210007 52 181 8.7 22.6 0.00 0.00 0.00 90 1008.3
20260506204505 53 220 12.2 23.5 0.00 0.00 0.00 89 1008.4
20260506203004 54 245 6.1 15.6 0.00 0.00 0.00 88 1008.4
20260506201504 55 172 8.7 21.7 0.00 0.00 0.00 88 1007.7
20260506200003 55 198 8.7 19.1 0.00 0.00 0.00 88 1008.0
20260506194502 54 197 12.2 24.3 0.00 0.00 0.00 88 1007.8
20260506193059 54 176 8.7 20.9 0.00 0.00 0.00 88 1008.1
20260506191558 54 208 8.7 21.7 0.00 0.00 0.00 88 1008.3
20260506190101 54 170 7.0 18.2 0.00 0.00 0.00 88 1008.5
20260506184558 52 174 8.7 18.2 0.00 0.00 0.00 89 1008.5
20260506183103 52 210 11.3 19.1 0.00 0.00 0.00 89 1008.5
20260506181618 52 193 9.6 19.1 0.00 0.00 0.00 89 1008.8
20260506180047 52 213 9.6 19.1 0.00 0.00 0.00 89 1009.0
20260506174545 52 172 7.8 15.6 0.00 0.00 0.00 89 1009.2
20260506173055 52 191 7.0 18.2 0.00 0.00 0.00 89 1009.3
20260506171543 52 191 9.6 19.1 0.00 0.00 0.00 89 1009.6
20260506170042 53 201 10.4 21.7 0.00 0.00 0.00 88 1009.7
20260506164543 54 162 8.7 21.7 0.00 0.00 0.00 87 1009.8
20260506163042 54 211 7.0 16.5 0.00 0.00 0.00 88 1010.3
20260506161539 53 185 10.4 19.1 0.00 0.00 0.00 88 1010.4
20260506160039 54 191 8.7 19.1 0.00 0.00 0.00 88 1010.3
20260506154538 55 182 13.0 23.5 0.00 0.00 0.00 88 1010.2
20260506153055 55 176 10.4 22.6 0.00 0.00 0.00 88 1009.9
20260506151542 55 203 8.7 18.2 0.00 0.00 0.00 88 1010.1
20260506150035 54 197 9.6 16.5 0.00 0.00 0.00 88 1010.5
20260506144532 53 180 7.0 16.5 0.00 0.00 0.00 90 1010.7
20260506143033 52 171 5.2 13.9 0.00 0.00 0.00 90 1010.9
20260506141532 53 172 6.1 13.9 0.00 0.00 0.00 90 1010.7
20260506140031 52 167 6.1 13.9 0.00 0.00 0.00 90 1010.7